Stations météo

réclame
Mon MeteoGroup
Elsenborn, Belgique (6496): Température de l'air & dewpoint: 18.08.2019 00:00:00 - 24.08.2019 00:00:00 (CEST)Elsenborn, Belgique (6496): Vitesse du vent & gusts: 18.08.2019 00:00:00 - 24.08.2019 00:00:00 (CEST)Elsenborn, Belgique (6496): Direction du vent: 18.08.2019 00:00:00 - 24.08.2019 00:00:00 (CEST)Elsenborn, Belgique (6496): reduced air pressure: 18.08.2019 00:00:00 - 24.08.2019 00:00:00 (CEST)Elsenborn, Belgique (6496): visibility: 18.08.2019 00:00:00 - 24.08.2019 00:00:00 (CEST)
Date & Time tt [°C] td [°C] ff [km/h] ff [knt] fx [km/h] fx [knt] dd ppp [hPa] vv [km]
24.08.2019 00:00:00 - - 4 2 7 4 N - -
23.08.2019 23:00:00 - - 4 2 - - N - -
23.08.2019 22:00:00 - - 4 2 7 4 N - -
23.08.2019 21:00:00 - - 4 2 11 6 N - -
23.08.2019 20:00:00 - - 4 2 - - N - -
23.08.2019 19:00:00 - - 7 4 22 12 E - -
23.08.2019 18:00:00 - - 7 4 22 12 ESE - -
23.08.2019 17:00:00 - - 4 2 - - N - -
23.08.2019 16:00:00 - - 4 2 18 10 N - -
23.08.2019 15:00:00 - - 7 4 25 14 SE - -
23.08.2019 14:00:00 - - 4 2 - - N - -
23.08.2019 13:00:00 - - 11 6 18 10 SE - -
23.08.2019 12:00:00 - - 7 4 14 8 ESE - -
23.08.2019 11:00:00 - - 7 4 - - E - -
23.08.2019 10:00:00 - - 7 4 11 6 N - -
23.08.2019 09:00:00 - - 4 2 4 2 N - -
23.08.2019 08:00:00 - - 4 2 - - N - -
23.08.2019 07:00:00 - - 7 4 7 4 ESE - -
23.08.2019 06:00:00 - - 4 2 4 2 N - -
23.08.2019 05:00:00 - - 4 2 - - N - -
23.08.2019 04:00:00 - - 7 4 7 4 SE - -
23.08.2019 03:00:00 - - 4 2 4 2 N - -
23.08.2019 02:00:00 - - 4 2 - - N - -
23.08.2019 01:00:00 - - 4 2 7 4 N - -
23.08.2019 00:00:00 - - 4 2 7 4 N - -
22.08.2019 23:00:00 - - 4 2 - - N - -
22.08.2019 22:00:00 - - 4 2 4 2 N - -
22.08.2019 21:00:00 - - 4 2 7 4 N - -
22.08.2019 20:00:00 - - 4 2 - - N - -
22.08.2019 19:00:00 - - 4 2 7 4 N - -
22.08.2019 18:00:00 - - 4 2 11 6 N - -
22.08.2019 17:00:00 - - 4 2 - - N - -
22.08.2019 16:00:00 - - 4 2 18 10 N - -
22.08.2019 15:00:00 - - 4 2 22 12 N - -
22.08.2019 14:00:00 - - 7 4 - - WSW - -
22.08.2019 13:00:00 - - 7 4 14 8 WSW - -
22.08.2019 12:00:00 - - 4 2 14 8 N - -
22.08.2019 11:00:00 - - 7 4 - - S - -
22.08.2019 10:00:00 - - 4 2 11 6 N - -
22.08.2019 09:00:00 - - 4 2 4 2 N - -
22.08.2019 08:00:00 - - 4 2 - - N - -
22.08.2019 07:00:00 - - 4 2 7 4 N - -
22.08.2019 06:00:00 - - 4 2 0 0 N - -
22.08.2019 05:00:00 - - 0 0 - - N - -
22.08.2019 04:00:00 - - 0 0 4 2 N - -
22.08.2019 03:00:00 - - 4 2 4 2 N - -
22.08.2019 02:00:00 - - 4 2 - - N - -
22.08.2019 01:00:00 - - 4 2 4 2 N - -
22.08.2019 00:00:00 - - 4 2 4 2 N - -
21.08.2019 23:00:00 - - 4 2 - - N - -
21.08.2019 22:00:00 - - 4 2 7 4 N - -
21.08.2019 21:00:00 - - 4 2 11 6 N - -
21.08.2019 20:00:00 - - 4 2 - - N - -
21.08.2019 19:00:00 - - 4 2 7 4 N - -
21.08.2019 18:00:00 - - 4 2 11 6 N - -
21.08.2019 17:00:00 - - 4 2 - - N - -
21.08.2019 16:00:00 - - 4 2 14 8 N - -
21.08.2019 15:00:00 19,2 7,0 4 2 14 8 N 1026,9 -
21.08.2019 14:00:00 - - 4 2 - - N - -
21.08.2019 13:00:00 - - 4 2 14 8 N - 20
21.08.2019 12:00:00 - - 4 2 18 10 N - 19
21.08.2019 11:00:00 16,0 7,0 7 4 - - SW 1028,7 20
21.08.2019 10:00:00 14,8 11,2 4 2 4 2 N 1028,7 18
21.08.2019 09:00:00 9,7 8,3 4 2 4 2 N 1029,7 20
21.08.2019 08:00:00 6,3 5,2 4 2 - - N 1030,5 20
21.08.2019 07:00:00 3,0 2,8 4 2 4 2 N 1031,2 20
21.08.2019 06:00:00 3,0 2,6 4 2 4 2 N 1030,7 13
21.08.2019 05:00:00 3,9 3,4 4 2 - - N 1030,2 15
21.08.2019 04:00:00 3,9 3,4 4 2 7 4 N 1030,4 14
21.08.2019 03:00:00 4,7 4,2 4 2 7 4 N 1030,0 14
21.08.2019 02:00:00 5,5 5,1 4 2 - - N 1029,7 19
21.08.2019 01:00:00 6,4 5,9 4 2 4 2 N 1029,4 17
21.08.2019 00:00:00 7,3 6,6 4 2 4 2 N 1028,9 20
20.08.2019 23:00:00 8,3 7,6 4 2 - - N 1028,2 20
20.08.2019 22:00:00 9,8 8,3 4 2 4 2 N 1027,5 20
20.08.2019 21:00:00 11,6 8,9 4 2 7 4 N 1026,5 20
20.08.2019 20:00:00 15,3 8,2 4 2 - - N 1025,0 20
20.08.2019 19:00:00 17,0 6,1 11 6 25 14 W 1024,2 20
20.08.2019 18:00:00 17,1 7,4 11 6 22 12 W 1023,7 20
20.08.2019 17:00:00 17,3 6,8 11 6 - - W 1023,6 20
20.08.2019 16:00:00 16,3 7,5 11 6 29 16 WNW 1023,6 20
20.08.2019 15:00:00 16,0 7,4 14 8 29 16 W 1023,5 20
20.08.2019 14:00:00 16,1 7,8 11 6 - - WSW 1023,2 19
20.08.2019 13:00:00 15,6 8,9 11 6 22 12 SW 1023,1 20
20.08.2019 12:00:00 14,3 9,1 11 6 14 8 SW 1023,6 12
20.08.2019 11:00:00 13,9 8,4 7 4 - - WSW 1023,3 20
20.08.2019 10:00:00 12,6 9,3 7 4 14 8 WSW 1023,2 20
20.08.2019 09:00:00 11,5 9,4 7 4 14 8 SW 1023,5 20
20.08.2019 08:00:00 8,1 7,6 4 2 - - N 1023,8 20
20.08.2019 07:00:00 4,3 4,0 4 2 4 2 N 1024,5 20
20.08.2019 06:00:00 4,9 4,4 4 2 7 4 N 1024,0 20
20.08.2019 05:00:00 5,1 4,8 2 1 - - - 1023,8 10
20.08.2019 04:00:00 5,9 5,5 4 2 4 2 N 1023,5 19
20.08.2019 03:00:00 7,0 6,5 4 2 4 2 N 1023,2 20
20.08.2019 02:00:00 8,0 7,3 4 2 - - N 1023,0 20
20.08.2019 01:00:00 9,0 7,9 4 2 7 4 N 1022,7 20
20.08.2019 00:00:00 10,8 9,5 4 2 7 4 N 1021,7 20
19.08.2019 23:00:00 10,8 9,8 4 2 - - N 1021,3 20
19.08.2019 22:00:00 10,9 9,1 4 2 11 6 N 1020,8 20
19.08.2019 21:00:00 13,6 8,9 7 4 11 6 SSW 1019,7 20
19.08.2019 20:00:00 16,1 8,4 7 4 - - SW 1018,7 20
19.08.2019 19:00:00 16,2 8,4 11 6 29 16 WSW 1018,5 20
19.08.2019 18:00:00 17,1 7,9 14 8 29 16 WSW 1018,2 20
19.08.2019 17:00:00 17,2 7,3 11 6 - - WSW 1017,8 20
19.08.2019 16:00:00 17,5 8,2 18 10 32 18 W 1017,8 19
19.08.2019 15:00:00 17,2 7,4 14 8 32 18 SW 1017,7 20
19.08.2019 14:00:00 17,9 8,1 18 10 - - WSW 1017,1 19
19.08.2019 13:00:00 16,8 7,9 18 10 36 19 WSW 1016,8 20
19.08.2019 12:00:00 15,7 7,6 18 10 29 16 WSW 1016,8 20
19.08.2019 11:00:00 14,7 9,0 14 8 - - WSW 1016,8 20
19.08.2019 10:00:00 13,1 9,8 14 8 29 16 SW 1016,8 19
19.08.2019 09:00:00 12,2 10,3 7 4 18 10 WSW 1016,7 20
19.08.2019 08:00:00 9,8 9,1 4 2 - - N 1016,8 20
19.08.2019 07:00:00 6,8 6,5 0 0 4 2 N 1017,2 10
19.08.2019 06:00:00 6,5 6,0 2 1 11 6 - 1016,7 0,8
19.08.2019 05:00:00 8,0 7,6 5 3 - - S 1016,2 10
19.08.2019 04:00:00 8,4 8,2 2 1 7 4 - 1015,6 2,7
19.08.2019 03:00:00 8,8 8,4 4 2 7 4 N 1015,3 15
19.08.2019 02:00:00 10,1 9,7 4 2 - - N 1014,7 20
19.08.2019 01:00:00 10,8 9,7 4 2 11 6 N 1014,1 20
19.08.2019 00:00:00 12,0 10,3 4 2 22 12 N 1013,1 20
18.08.2019 23:00:00 13,5 12,4 7 4 - - W 1012,5 20
18.08.2019 22:00:00 13,0 12,3 7 4 11 6 SW 1011,7 20
18.08.2019 21:00:00 13,6 12,6 4 2 14 8 N 1011,0 20
18.08.2019 20:00:00 15,0 13,6 7 4 - - SSW 1010,1 20
18.08.2019 19:00:00 15,1 13,2 15 8 25 14 W 1010,0 10
18.08.2019 18:00:00 15,1 14,0 14 8 47 25 W 1009,3 19
18.08.2019 17:00:00 17,2 15,9 25 14 - - W 1007,8 20
18.08.2019 16:00:00 16,9 16,0 18 10 36 19 WSW 1007,0 6
18.08.2019 15:00:00 18,3 16,6 14 8 43 23 SW 1006,1 20
18.08.2019 14:00:00 18,1 16,5 22 12 - - SW 1006,2 20
18.08.2019 13:00:00 18,1 16,4 25 14 43 23 SW 1005,1 20
18.08.2019 12:00:00 17,5 16,2 22 12 40 21 SW 1004,6 20
18.08.2019 11:00:00 17,0 16,1 18 10 - - SSW 1004,2 20
18.08.2019 10:00:00 16,0 15,6 14 8 36 19 SSW 1004,5 3,5
18.08.2019 09:00:00 14,6 14,4 14 8 29 16 S 1005,5 4,0
18.08.2019 08:00:00 13,5 13,2 11 6 - - S 1006,3 8
18.08.2019 07:00:00 12,6 12,2 7 4 11 6 SSW 1007,3 20
18.08.2019 06:00:00 12,3 12,2 4 2 14 8 N 1007,7 20
18.08.2019 05:00:00 12,1 12,1 7 4 - - SW 1008,6 18
18.08.2019 04:00:00 13,0 12,9 7 4 29 16 WNW 1008,7 4,8
18.08.2019 03:00:00 15,3 15,1 11 6 25 14 SSW 1007,7 8
18.08.2019 02:00:00 15,3 15,1 11 6 - - SSW 1008,3 13
18.08.2019 01:00:00 15,3 15,1 11 6 18 10 S 1008,7 13
18.08.2019 00:00:00 15,3 15,1 7 4 25 14 SSW 1009,2 8

tt = Température de l'air
td = dewpoint
ff = Vitesse du vent
fx = gusts
dd = Direction du vent
ppp = reduced air pressure
vv = visibility

stations d'obs. à proximité